H160 LSZH-LSZA

Flight info

Callsign H160
Flight time N/A
Altitude 6000
Route RONIX/N0174F070 DCT 470731N0082835E DCT GERSA DCT LS201 DCT URNAS/N0173F060 DCT 465931N0083545E/N0174F070 DCT LS202 DCT LS204 DCT LS205/N0173F060 DCT LS206 DCT 463541N0083341E/N0174F070 DCT LS209 DCT 463126N0083404E DCT LS210 DCT 463002N0084353E DCT LS211 DCT 462429N0085210E DCT LS212 DCT LS213/N0173F060 DCT VP012 DCT VP009 DCT LS214 DCT 460501N0085456E DCT 460230N0085550E
Aircraft H160/L-SBDGRY/S

Departure

Time N/A
Airport Zürich Airport (LSZH)

Arrival

Time 2026-04-15 21:03
Airport Lugano Airport (LSZA)
Time Latitude Longitude Altitude Speed Heading
2026-04-15 21:01 46.03894 8.92282 2939 ft 132 kts 194°
2026-04-15 21:01 46.03021 8.91988 2958 ft 126 kts 197°
2026-04-15 21:01 46.02190 8.91661 2984 ft 121 kts 198°
2026-04-15 21:02 46.01403 8.91322 3038 ft 117 kts 199°
2026-04-15 21:02 46.00638 8.90973 3088 ft 113 kts 200°
2026-04-15 21:02 45.99972 8.90369 2874 ft 120 kts 230°
2026-04-15 21:02 45.99448 8.89410 2543 ft 118 kts 233°
2026-04-15 21:03 45.98870 8.88892 2442 ft 89 kts 155°
2026-04-15 21:03 45.98807 8.89571 2155 ft 80 kts 53°
2026-04-15 21:03 45.99268 8.90126 1908 ft 77 kts 30°
2026-04-15 21:03 45.99652 8.90307 1767 ft 45 kts 13°
2026-04-15 21:04 45.99933 8.90393 1458 ft 33 kts 16°
2026-04-15 21:04 46.00098 8.90393 1085 ft 25 kts 107°
2026-04-15 21:04 45.99893 8.90631 1074 ft 23 kts 147°
2026-04-15 21:04 45.99888 8.90703 927 ft 6 kts 65°
2026-04-15 21:05 45.99890 8.90699 925 ft 0 kts 65°
2026-04-15 21:05 45.99891 8.90698 924 ft 0 kts 68°
2026-04-15 21:06 45.99893 8.90703 927 ft 4 kts 68°
2026-04-15 21:06 45.99923 8.90727 975 ft 13 kts 28°
2026-04-15 21:06 46.00148 8.90838 1021 ft 42 kts 21°
2026-04-15 21:06 46.00352 8.90888 1065 ft 19 kts
2026-04-15 21:07 46.00404 8.91018 954 ft 14 kts 287°
2026-04-15 21:07 46.00327 8.90872 1018 ft 16 kts 20°
2026-04-15 21:07 46.00395 8.90871 923 ft 0 kts 243°
2026-04-15 21:07 46.00394 8.90869 923 ft 1 kts 244°
2026-04-15 21:08 46.00388 8.90864 922 ft 9 kts 107°
2026-04-15 21:08 46.00386 8.90885 921 ft 12 kts 162°
2026-04-15 21:08 46.00339 8.90981 929 ft 8 kts 340°
2026-04-15 21:08 46.00376 8.90910 929 ft 8 kts 350°
2026-04-15 21:09 46.00396 8.90899 927 ft 3 kts 350°
2026-04-15 21:09 46.00391 8.90899 937 ft 4 kts 349°
2026-04-15 21:09 46.00394 8.90861 920 ft 0 kts 63°
2026-04-15 21:09 46.00400 8.90869 921 ft 2 kts 87°
2026-04-15 21:10 46.00406 8.90891 925 ft 5 kts 86°
2026-04-15 21:10 46.00409 8.90893 922 ft 0 kts 157°